Regional Weather Roundup
Issued by NWS Charleston, WV

Home | Current Version | Previous Version | Text Only | Print | Product List | Glossary Off
Versions: 1 2 3 4 5 6 7 8 9 10 11 12 13 14 15 16 17 18 19 20 21 22 23 24 25 26 27 28 29 30 31 32 33 34 35 36 37 38 39 40 41 42 43 44 45 46 47 48 49 50

000
ASUS41 KRLX 060110
RWRRLX
West Virginia Regional Weather Roundup
National Weather Service Charleston WV
900 PM EDT SUN JUL 05 2015

Note: "fair" indicates few or no clouds below 12,000 feet with no
significant weather and/or obstructions to visibility.

WVZ003-060200-
Northern Panhandle of West Virginia

CITY           SKY/WX    TMP DP  RH WIND       PRES   REMARKS
WHEELING       CLOUDY    74  62  66 NE7       30.09S
$$

WVZ009-060200-
Northwest West Virginia

CITY           SKY/WX    TMP DP  RH WIND       PRES   REMARKS
PARKERSBURG    CLOUDY    75  68  78 NE3       30.07S
$$

WVZ006-060200-
Western West Virginia

CITY           SKY/WX    TMP DP  RH WIND       PRES   REMARKS
HUNTINGTON     TSTM      68  68 100 SW3       30.04S FOG
$$

WVZ015-060200-
West Central West Virginia

CITY           SKY/WX    TMP DP  RH WIND       PRES   REMARKS
CHARLESTON     MOCLDY    69  66  90 E5        30.04S
$$

WVZ022-031-060200-
North Central West Virginia

CITY           SKY/WX    TMP DP  RH WIND       PRES   REMARKS
CLARKSBURG     CLOUDY    73  71  93 SE6       30.08S
MORGANTOWN     CLOUDY    77  64  64 E3        30.09F
$$

WVZ025-035-042-045-060200-
Southern West Virginia

CITY           SKY/WX    TMP DP  RH WIND       PRES   REMARKS
BECKLEY        LGT RAIN  64  59  83 SE12      30.13F
LOGAN          MOCLDY    68  66  94 CALM      30.04R
BLUEFIELD      CLOUDY    66  61  84 E3        30.16S
LEWISBURG      CLOUDY    71  66  84 CALM      30.15R
$$

WVZ047-060200-
Northern Mountains of West Virginia

CITY           SKY/WX    TMP DP  RH WIND       PRES   REMARKS
ELKINS         LGT RAIN  68  66  93 CALM      30.14F
$$

WVZ052-060200-
Eastern Panhandle of West Virginia

CITY           SKY/WX    TMP DP  RH WIND       PRES   REMARKS
MARTINSBURG    CLOUDY    76  70  82 CALM      30.12S
PETERSBURG     CLOUDY    73  68  82 CALM      30.12S
$$



USA.gov is the U.S. government's official web portal to all federal, state and local government web resources and services.